[[{"header":{"parameterUnit":"m.s-1","parameterCategory":1,"la1":30.2991,"la2":30.254,"lo1":-89.0895,"lo2":-89.0444,"dy":0.0017,"dx":0.0017,"nx":28,"ny":28,"refTime":"2025-06-09T21:00:00:Z","depth":0,"parameterNumber":2,"parameterNumberName":"U-component_of_WINDS"},"data":[0,0,0,0,0,0,0,0,0,0,0,0,0,0,0,0,0,0,0,0,0,0,0,0,0,0,0,0,0,0,0,0,0,0,0,0,0,0,0,0,0,0,0,0,0,0,0,0,0,0,0,0,0,0,0,0,0,0,-0.0532,-0.0532,0,-0.05,-0.05,-0.05,-0.0466,-0.0466,-0.0465,-0.0465,-0.0433,-0.0433,-0.0433,0,0,0,0,0,0,0,0,0,0,0,0,0,-0.0566,-0.0566,-0.0532,-0.0532,-0.0531,-0.05,-0.05,-0.0499,-0.0466,-0.0466,-0.0465,-0.0465,-0.0434,-0.0433,-0.0433,0,0,0,0,0,0,0,0,0,0,0,0,0,-0.0545,-0.0566,-0.0532,-0.0511,-0.0509,-0.05,-0.05,-0.0499,-0.0466,-0.0466,-0.0465,-0.0464,-0.0434,-0.0433,-0.0432,-0.0443,0,0,-0.0431,-0.043,0,0,0,0,0,0,0,0,-0.0546,-0.0544,-0.0515,-0.0513,-0.051,-0.0486,-0.05,-0.048,-0.0466,-0.0483,-0.0465,-0.0464,-0.0452,-0.045,-0.0445,-0.0441,-0.044,-0.0431,-0.043,-0.043,-0.043,0,0,0,0,0,0,0,-0.0548,-0.0545,-0.052,-0.0514,-0.0511,-0.0504,-0.05,-0.0496,-0.0471,-0.0481,-0.0479,-0.0475,-0.045,-0.0446,-0.0444,-0.044,-0.0431,-0.043,-0.043,-0.0429,-0.0445,-0.0445,0,0,0,0,0,0,-0.0552,-0.0546,-0.0521,-0.0519,-0.0527,-0.0504,-0.0499,-0.0495,-0.0471,-0.0467,-0.0476,-0.0474,-0.0447,-0.0445,-0.0443,-0.0455,-0.043,-0.0429,-0.0429,-0.0444,-0.0445,-0.0445,0,0,0,0,0,0,-0.0553,-0.055,-0.0522,-0.0532,-0.0528,-0.0504,-0.0499,-0.0494,-0.049,-0.0467,-0.0463,-0.0476,-0.0447,-0.0444,-0.0443,-0.0453,-0.0429,-0.0429,-0.0443,-0.0444,-0.0445,-0.0478,0,0,0,0,0,0,-0.0554,-0.0551,-0.0554,-0.0532,-0.0527,-0.0522,-0.0499,-0.0494,-0.0489,-0.0486,-0.0466,-0.0462,-0.0446,-0.0445,-0.0443,-0.0452,-0.0428,-0.0442,-0.0443,-0.0445,-0.0476,-0.048,-0.0484,0,0,0,0,0,-0.0555,-0.0564,-0.0554,-0.0551,-0.0531,-0.0523,-0.052,-0.0501,-0.049,-0.0493,-0.0479,-0.0463,-0.0452,-0.0445,-0.0443,-0.0452,-0.0441,-0.0443,-0.0445,-0.0474,-0.0479,-0.0484,0,0,0,0,0,0,-0.0588,-0.0561,-0.0549,-0.0551,-0.054,-0.0517,-0.0521,-0.0507,-0.0498,-0.0496,-0.0472,-0.0468,-0.0471,-0.0461,-0.0453,-0.0461,-0.0445,-0.0446,-0.0468,-0.0473,-0.0476,-0.0479,-0.0428,0,0,0,0,0,-0.0595,-0.0591,-0.0568,-0.0572,-0.0567,-0.0545,-0.0541,-0.0527,-0.0514,-0.0509,-0.0495,-0.0483,-0.0478,-0.0474,-0.0468,-0.0474,-0.047,-0.0479,-0.0483,-0.0487,-0.0489,-0.0493,-0.0497,-0.0451,-0.0451,-0.0451,0,0,-0.0611,-0.0595,-0.0594,-0.0578,-0.0567,-0.0564,-0.0541,-0.0538,-0.0536,-0.0509,-0.0508,-0.0497,-0.0483,-0.0487,-0.0487,-0.0478,-0.05,-0.0489,-0.0492,-0.0492,-0.0495,-0.05,-0.0503,-0.0452,-0.0452,-0.0452,0,0,-0.0637,-0.0624,-0.0627,-0.0617,-0.0601,-0.0587,-0.0588,-0.0568,-0.056,-0.0558,-0.0538,-0.0535,-0.0525,-0.0517,-0.0511,-0.0535,-0.0521,-0.0534,-0.0554,-0.0559,-0.0563,-0.0566,-0.0576,-0.058,-0.0535,-0.0535,-0.0535,0,-0.0658,-0.0652,-0.063,-0.0629,-0.0624,-0.0599,-0.0602,-0.0593,-0.0576,-0.0573,-0.0563,-0.0551,-0.054,-0.0542,-0.0548,-0.0543,-0.0545,-0.0536,-0.0564,-0.0567,-0.0569,-0.0579,-0.0582,-0.0537,-0.0537,-0.0537,-0.0537,0,-0.068,-0.0676,-0.068,-0.0665,-0.0659,-0.066,-0.064,-0.0637,-0.0623,-0.0611,-0.061,-0.0596,-0.0586,-0.0586,-0.0572,-0.0586,-0.0581,-0.0568,-0.0551,-0.0576,-0.0584,-0.0588,-0.054,-0.0539,-0.0538,-0.0538,0,0,-0.0726,-0.0699,-0.0701,-0.0694,-0.0675,-0.0672,-0.0673,-0.0663,-0.0662,-0.0651,-0.0652,-0.0645,-0.0633,-0.0626,-0.0612,-0.0616,-0.0638,-0.0602,-0.0601,-0.061,-0.0654,-0.0666,-0.067,-0.0628,-0.0628,-0.0629,-0.0656,0,-0.075,-0.0749,-0.073,-0.0735,-0.0732,-0.0709,-0.071,-0.0699,-0.0687,-0.0683,-0.067,-0.0666,-0.0649,-0.0645,-0.0648,-0.0635,-0.0647,-0.0632,-0.063,-0.063,-0.0635,-0.0674,-0.0686,-0.0712,-0.0659,-0.0659,-0.066,0,-0.0779,-0.077,-0.0775,-0.0757,-0.0755,-0.0756,-0.0746,-0.0743,-0.073,-0.0721,-0.0715,-0.0699,-0.0699,-0.0682,-0.0683,-0.0674,-0.0671,-0.0665,-0.0665,-0.0666,-0.0647,-0.0677,-0.072,-0.0725,-0.0665,-0.0664,-0.0664,0,-0.0814,-0.0803,-0.0805,-0.08,-0.0778,-0.078,-0.0771,-0.0758,-0.0754,-0.0746,-0.0744,-0.0736,-0.0732,-0.0726,-0.0709,-0.0698,-0.0713,-0.0694,-0.0707,-0.0707,-0.0712,-0.0712,-0.0757,-0.0708,-0.0708,-0.0708,-0.0708,0,-0.0844,-0.0848,-0.0821,-0.0822,-0.0826,-0.0805,-0.081,-0.0799,-0.0788,-0.0787,-0.0766,-0.0766,-0.0743,-0.074,-0.0727,-0.0731,-0.0728,-0.0722,-0.0719,-0.0725,-0.0726,-0.0724,-0.0723,-0.0709,-0.0709,-0.0708,-0.0708,0,-0.0885,-0.0866,-0.0867,-0.0847,-0.0842,-0.0846,-0.083,-0.0831,-0.0817,-0.0817,-0.0816,-0.0796,-0.0792,-0.0774,-0.0766,-0.0757,-0.0766,-0.0758,-0.0771,-0.0769,-0.0783,-0.0783,-0.0829,-0.0835,-0.0781,-0.0782,-0.0782,0,-0.0906,-0.0908,-0.0889,-0.0887,-0.0879,-0.0876,-0.0872,-0.0851,-0.0848,-0.0835,-0.0838,-0.0832,-0.0827,-0.0823,-0.0808,-0.0802,-0.0795,-0.0812,-0.0794,-0.0801,-0.0797,-0.0798,-0.0799,-0.0816,-0.0817,-0.0817,-0.0818,0,-0.0946,-0.0937,-0.0931,-0.0924,-0.092,-0.0912,-0.0904,-0.0904,-0.0881,-0.0878,-0.0874,-0.087,-0.0863,-0.0858,-0.085,-0.0842,-0.0827,-0.0823,-0.0826,-0.0833,-0.0841,-0.0839,-0.0783,-0.0823,-0.0822,-0.0822,-0.0821,-0.0821,-0.0978,-0.098,-0.0967,-0.0963,-0.0954,-0.0947,-0.0947,-0.0934,-0.0931,-0.0923,-0.091,-0.0909,-0.0897,-0.0885,-0.0878,-0.0877,-0.0868,-0.0872,-0.0873,-0.0875,-0.0879,-0.084,-0.0875,-0.0875,-0.0875,-0.0875,-0.0874,0,-0.1018,-0.1009,-0.1005,-0.0994,-0.0991,-0.0976,-0.0966,-0.0965,-0.0964,-0.0954,-0.0949,-0.0946,-0.0941,-0.0926,-0.0921,-0.0923,-0.0916,-0.0923,-0.0923,-0.0922,-0.0886,-0.0885,-0.0928,-0.0928,-0.0928,-0.0928,-0.0928,-0.0928,-0.1039,-0.1042,-0.1032,-0.1031,-0.1022,-0.102,-0.1016,-0.101,-0.1002,-0.0999,-0.0995,-0.0985,-0.0974,-0.0968,-0.0964,-0.0959,-0.0959,-0.0968,-0.0962,-0.0929,-0.0924,-0.0919,-0.0918,-0.0968,-0.0968,-0.0998,-0.0998,-0.0998]},{"header":{"parameterUnit":"m.s-1","parameterCategory":1,"la1":30.2991,"la2":30.254,"lo1":-89.0895,"lo2":-89.0444,"dy":0.0017,"dx":0.0017,"nx":28,"ny":28,"refTime":"2025-06-09T21:00:00:Z","depth":0,"parameterNumber":3,"parameterNumberName":"V-component_of_WINDS"},"data":[0,0,0,0,0,0,0,0,0,0,0,0,0,0,0,0,0,0,0,0,0,0,0,0,0,0,0,0,0,0,0,0,0,0,0,0,0,0,0,0,0,0,0,0,0,0,0,0,0,0,0,0,0,0,0,0,0,0,-0.8118,-0.8119,0,-0.8164,-0.8164,-0.8165,-0.8146,-0.8145,-0.8144,-0.8143,-0.8191,-0.8193,-0.8196,0,0,0,0,0,0,0,0,0,0,0,0,0,-0.8017,-0.8019,-0.8118,-0.8119,-0.8119,-0.8164,-0.8164,-0.8165,-0.8146,-0.8145,-0.8144,-0.8142,-0.819,-0.8193,-0.8196,0,0,0,0,0,0,0,0,0,0,0,0,0,-0.8061,-0.8019,-0.8118,-0.8115,-0.8115,-0.8164,-0.8164,-0.8165,-0.8147,-0.8145,-0.8143,-0.8142,-0.819,-0.8193,-0.8196,-0.825,0,0,-0.8207,-0.8208,0,0,0,0,0,0,0,0,-0.8059,-0.8065,-0.8115,-0.8115,-0.8116,-0.8148,-0.8146,-0.8194,-0.8147,-0.8135,-0.8143,-0.8141,-0.8178,-0.8182,-0.8195,-0.8253,-0.8255,-0.8207,-0.8209,-0.8211,-0.8212,0,0,0,0,0,0,0,-0.8056,-0.8063,-0.8136,-0.8116,-0.8116,-0.8112,-0.8117,-0.8155,-0.8165,-0.8136,-0.8134,-0.814,-0.8178,-0.8191,-0.8196,-0.8255,-0.8207,-0.821,-0.8212,-0.8214,-0.8362,-0.8364,0,0,0,0,0,0,-0.8052,-0.8061,-0.8135,-0.8138,-0.8083,-0.8116,-0.8121,-0.8139,-0.8165,-0.8167,-0.8141,-0.8139,-0.8186,-0.8192,-0.8197,-0.8264,-0.8211,-0.8214,-0.8216,-0.836,-0.8363,-0.8365,0,0,0,0,0,0,-0.805,-0.8059,-0.8133,-0.8099,-0.8108,-0.8119,-0.814,-0.8141,-0.8154,-0.8169,-0.8171,-0.8153,-0.8185,-0.8192,-0.8238,-0.8265,-0.8216,-0.8219,-0.8358,-0.8361,-0.8364,-0.8396,0,0,0,0,0,0,-0.8047,-0.8059,-0.8079,-0.8099,-0.811,-0.8172,-0.8142,-0.8143,-0.816,-0.8157,-0.818,-0.8183,-0.8184,-0.8233,-0.8241,-0.8269,-0.8221,-0.8356,-0.836,-0.8363,-0.8393,-0.84,-0.8406,0,0,0,0,0,-0.8044,-0.8086,-0.808,-0.8089,-0.8135,-0.8173,-0.818,-0.818,-0.8162,-0.8183,-0.8193,-0.8182,-0.8261,-0.8237,-0.8247,-0.8276,-0.8354,-0.8358,-0.8363,-0.839,-0.8398,-0.8405,0,0,0,0,0,0,-0.8068,-0.8088,-0.8082,-0.8131,-0.8151,-0.817,-0.8196,-0.8189,-0.8214,-0.8211,-0.8211,-0.8217,-0.8264,-0.8274,-0.8248,-0.8331,-0.8305,-0.8311,-0.8322,-0.833,-0.8337,-0.8334,-0.8224,0,0,0,0,0,-0.8079,-0.8108,-0.8124,-0.8167,-0.8177,-0.8185,-0.8202,-0.8201,-0.8221,-0.8229,-0.8242,-0.8263,-0.8293,-0.8312,-0.834,-0.8394,-0.84,-0.8419,-0.8425,-0.8431,-0.8436,-0.8468,-0.8477,-0.8379,-0.8379,-0.8378,0,0,-0.8102,-0.8117,-0.8135,-0.8172,-0.8187,-0.8218,-0.8192,-0.8225,-0.8249,-0.8235,-0.8278,-0.8289,-0.8312,-0.8362,-0.8385,-0.8373,-0.8465,-0.8436,-0.844,-0.8443,-0.8473,-0.8482,-0.849,-0.8381,-0.8381,-0.838,0,0,-0.816,-0.8173,-0.8211,-0.8227,-0.825,-0.8255,-0.8264,-0.8285,-0.8292,-0.8336,-0.8326,-0.8354,-0.8404,-0.8422,-0.8437,-0.8504,-0.8496,-0.8513,-0.8547,-0.8578,-0.8585,-0.8592,-0.8617,-0.8626,-0.8518,-0.8519,-0.8519,0,-0.8186,-0.8231,-0.8231,-0.8266,-0.8283,-0.8272,-0.8311,-0.8326,-0.8357,-0.837,-0.8355,-0.8419,-0.8434,-0.8489,-0.8505,-0.8518,-0.8529,-0.851,-0.8584,-0.8591,-0.8598,-0.8622,-0.8631,-0.8521,-0.852,-0.852,-0.852,0,-0.8263,-0.8295,-0.8323,-0.8353,-0.8373,-0.841,-0.8416,-0.8437,-0.8435,-0.8442,-0.8488,-0.8505,-0.8537,-0.855,-0.8548,-0.8606,-0.8598,-0.8584,-0.8558,-0.8609,-0.8632,-0.8641,-0.8524,-0.8523,-0.8522,-0.8522,0,0,-0.8337,-0.8368,-0.8378,-0.8392,-0.8418,-0.8443,-0.848,-0.8511,-0.8529,-0.8551,-0.8583,-0.8627,-0.8615,-0.8632,-0.8632,-0.8659,-0.8712,-0.8642,-0.8642,-0.8656,-0.8779,-0.879,-0.8801,-0.8707,-0.8708,-0.871,-0.8778,0,-0.8398,-0.8462,-0.8463,-0.8522,-0.8553,-0.8543,-0.8575,-0.8595,-0.8603,-0.8631,-0.864,-0.8672,-0.8653,-0.8663,-0.8689,-0.87,-0.8737,-0.8695,-0.8738,-0.8739,-0.8733,-0.8812,-0.8824,-0.8887,-0.8786,-0.8788,-0.8789,0,-0.8477,-0.8502,-0.8565,-0.8587,-0.86,-0.8629,-0.8658,-0.8685,-0.8707,-0.8712,-0.8732,-0.8729,-0.8767,-0.874,-0.8794,-0.8766,-0.8783,-0.8791,-0.8794,-0.8799,-0.8768,-0.882,-0.8907,-0.8917,-0.8802,-0.8801,-0.88,0,-0.8527,-0.8576,-0.862,-0.8632,-0.8659,-0.868,-0.8693,-0.8714,-0.8733,-0.8759,-0.8772,-0.8802,-0.8819,-0.8843,-0.8848,-0.8827,-0.8903,-0.8876,-0.8909,-0.8909,-0.8926,-0.8925,-0.9018,-0.8936,-0.8935,-0.8935,-0.8935,0,-0.8595,-0.8634,-0.8643,-0.867,-0.8714,-0.8715,-0.8759,-0.877,-0.8789,-0.8819,-0.8812,-0.8841,-0.8845,-0.8875,-0.888,-0.8925,-0.8932,-0.8938,-0.8939,-0.8939,-0.8939,-0.8951,-0.8948,-0.8938,-0.8937,-0.8937,-0.8936,0,-0.8657,-0.8665,-0.8712,-0.8734,-0.8741,-0.8772,-0.8792,-0.8818,-0.8826,-0.8864,-0.8874,-0.8886,-0.8921,-0.8929,-0.897,-0.8973,-0.9028,-0.9024,-0.902,-0.902,-0.9054,-0.9051,-0.9158,-0.9173,-0.908,-0.9081,-0.9082,0,-0.8701,-0.8731,-0.8756,-0.8776,-0.8789,-0.8821,-0.8841,-0.8844,-0.8865,-0.8894,-0.8918,-0.8952,-0.898,-0.9037,-0.905,-0.9082,-0.908,-0.9115,-0.9085,-0.9085,-0.9082,-0.9081,-0.9085,-0.9121,-0.9122,-0.9123,-0.9124,0,-0.8778,-0.8781,-0.8809,-0.884,-0.8864,-0.8888,-0.8911,-0.8928,-0.8934,-0.8959,-0.8995,-0.9016,-0.9059,-0.9094,-0.9126,-0.914,-0.9134,-0.9133,-0.9143,-0.9144,-0.9142,-0.9145,-0.9037,-0.9131,-0.913,-0.913,-0.9129,-0.9129,-0.8833,-0.886,-0.8883,-0.8915,-0.8933,-0.8955,-0.8982,-0.8994,-0.9023,-0.9059,-0.9059,-0.9099,-0.9122,-0.9165,-0.9181,-0.9213,-0.9202,-0.9215,-0.9219,-0.9223,-0.9227,-0.9136,-0.9219,-0.9218,-0.9218,-0.9218,-0.9218,0,-0.8911,-0.8926,-0.8956,-0.8989,-0.9015,-0.9006,-0.9032,-0.9055,-0.9089,-0.9112,-0.9139,-0.9182,-0.9216,-0.9232,-0.9266,-0.9289,-0.9287,-0.9298,-0.9297,-0.93,-0.9234,-0.9223,-0.9299,-0.9299,-0.9299,-0.9299,-0.9299,-0.9299,-0.8955,-0.9,-0.9006,-0.9061,-0.9075,-0.9114,-0.9129,-0.915,-0.9168,-0.9216,-0.9244,-0.9254,-0.9275,-0.9311,-0.9342,-0.9346,-0.936,-0.9372,-0.9375,-0.9313,-0.9305,-0.9297,-0.9287,-0.9375,-0.9375,-0.9439,-0.944,-0.9441]}]]